Hourly Weather Roundup
Issued by NWS Central Illinois

Home | Current Version | Previous Version | Text Only | Print | Product List | Glossary On
Versions: 1 2 3 4 5 6 7 8 9 10 11 12 13 14 15 16 17 18 19 20 21 22 23 24 25 26 27 28 29 30 31 32 33 34 35 36 37 38 39 40 41 42 43 44 45 46 47 48 49 50
849
NZUS43 KILX 210510
HWRILX

Area Weather Roundup
National Weather Service Lincoln IL
1200 AM CDT SAT APR 21 2018

NOTE:  "FAIR" indicates few or no clouds below 12,000 feet, with
       no sigificant weather and/or obstructions to visibility.


CITY           SKY/WX    TMP DP  RH WIND       PRES   REMARKS
Bloomington    FAIR      44  27  51 E10       30.41F
Champaign      FAIR      44  24  45 E8        30.40S
Danville       FAIR      45  27  50 NE8       30.40S
Decatur        FAIR      41  28  60 E3        30.39F
Effingham      FAIR      49  28  45 NE5       30.40R
Flora          FAIR      48  28  46 NE6       30.37S
Galesburg      FAIR      52  30  42 CALM      30.40S
Jacksonville   PTCLDY    42  27  55 E7        30.38F
Lacon          FAIR      47  25  43 E8        30.40F
Lawrenceville  FAIR      47  28  47 NE8       30.39R
Litchfield     CLOUDY    48  24  39 NE6       30.37S
$$


CITY           SKY/WX    TMP DP  RH WIND       PRES   REMARKS
Lincoln        FAIR      41  31  66 NE5       30.40R
Macomb         CLOUDY    43  30  59 E5        30.41F
Mattoon        FAIR      43  28  55 E7        30.39R
Mt Carmel AP   FAIR      46  30  54 NE6       30.38S
Olney-Noble AP FAIR      48  21  35 NE7       30.38S
Paris AP       FAIR      44  28  53 NE3       30.41S
Peoria         FAIR      50  25  37 E3        30.40S
Pontiac        FAIR      43  25  49 E8        30.43S
Rantoul        FAIR      46  28  50 NE8       30.41S
Robinson       FAIR      43  30  60 CALM      30.41S
Springfield    FAIR      47  25  42 E5        30.39S
Taylorville    FAIR      49  22  35 E10       30.38S
$$

...REGIONAL REPORTS...


CITY           SKY/WX    TMP DP  RH WIND       PRES   REMARKS
Chicago O`Hare MOCLDY    44  17  33 CALM      30.44R
Kankakee       FAIR      43  19  37 SE5       30.45R
La Salle       FAIR      47  26  44 E5        30.43S
Moline         FAIR      43  31  62 E3        30.40R
Mount Sterling CLOUDY    43  26  51 E8        30.36F
Mount Vernon   FAIR      37  34  89 NE5       30.36S WCI  33
Pittsfield     PTCLDY    48  23  37 E5        30.37F
Quincy         CLOUDY    48  22  35 E6        30.35F
Rockford       MOCLDY    44  18  35 SE5       30.45S
$$


CITY           SKY/WX    TMP DP  RH WIND       PRES   REMARKS
Burlington     CLOUDY    52  21  29 E5        30.37F
Cedar Rapids   FAIR      49  23  36 E7        30.38F
Des Moines     CLOUDY    52  25  35 E9        30.35F
Kirksville     PTCLDY    48  24  39 E8        30.33F
Ottumwa        CLOUDY    49  24  37 E7        30.35F
St Louis       PTCLDY    49  26  41 E5        30.35F
$$


CITY           SKY/WX    TMP DP  RH WIND       PRES   REMARKS
Terre Haute    FAIR      40  31  70 NE3       30.40S
Evansville     FAIR      48  32  53 NE9       30.37S
Indianapolis   FAIR      47  24  40 E7        30.41S
Lafayette      FAIR      44  23  43 NE5       30.43R
Madison        FAIR      33  26  75 CALM      30.44R
Milwaukee      FAIR      40  17  39 CALM      30.45S
$$






USA.gov is the U.S. government's official web portal to all federal, state and local government web resources and services.